Wind_Speed
19 19 19 18 18 18 18 17 17 17 17 17 17 16 16 15 15 14 15 15 15 15 15 15 15 15 15 14 14 14 14 14 14 14 14 13 13 12 11 11 11 11 11 12 12 13 13 13 14 14 15 16 16 17 17 16 16 16 16 16 16 16 16 16 16 16 16 16 16
20 20 20 19 19 19 19 19 19 19 18 18 18 17 17 16 16 16 15 15 15 15 15 15 15 15 14 14 13 13 13 13 13 14 14 14 13 12 12 11 11 11 12 12 12 13 13 13 14 14 14 15 15 16 16 16 16 16 16 16 16 16 16 16 16 15 15 15 15
21 21 21 21 20 21 21 21 21 20 20 19 19 18 18 18 17 17 17 17 17 16 16 16 16 15 15 14 13 13 12 12 12 12 13 13 13 13 12 12 11 11 12 12 12 13 13 13 13 14 14 14 14 15 15 15 15 15 16 16 16 15 15 15 15 14 14 14 14
21 21 21 22 22 22 22 22 22 22 21 20 20 20 19 19 19 19 19 18 18 18 18 18 18 17 16 15 14 13 12 12 12 12 12 13 13 13 12 12 12 12 12 12 12 13 13 13 13 14 14 14 14 14 14 15 15 15 16 16 15 15 15 15 14 14 13 14 14
23 22 22 22 23 23 23 23 23 22 22 21 21 21 21 21 21 21 21 21 21 20 20 20 19 19 18 17 16 15 14 13 13 12 12 12 12 12 12 12 12 12 12 12 12 12 13 13 14 14 14 14 14 14 14 14 15 15 15 16 15 15 15 14 14 13 13 13 13
24 24 23 23 23 23 23 23 22 22 22 22 22 22 23 23 23 23 23 23 23 22 22 21 21 21 21 20 18 17 16 15 14 14 13 13 13 12 12 12 13 13 12 12 12 12 13 13 14 14 14 14 14 14 14 14 15 15 16 16 16 15 15 14 14 13 13 13 13
24 24 24 23 23 23 23 23 23 22 22 22 23 24 25 25 25 25 25 24 24 23 23 23 23 22 22 22 21 19 18 17 16 16 15 14 14 13 13 13 13 13 13 13 13 13 13 14 14 15 15 15 15 15 15 15 15 16 16 16 16 16 15 15 14 14 14 13 13
23 23 23 24 24 23 23 23 23 23 23 23 25 26 26 26 26 26 26 25 25 25 24 24 24 23 23 23 22 21 20 19 18 17 17 16 15 14 14 14 14 14 14 14 14 13 13 14 15 15 15 16 16 16 16 16 16 16 17 17 17 17 16 16 15 15 14 14 14
23 23 23 23 23 24 24 24 23 23 24 25 26 26 27 27 27 27 27 27 26 26 25 25 25 24 24 24 24 23 22 21 20 19 18 17 16 16 15 15 15 16 16 15 15 14 14 14 15 15 16 16 16 16 16 16 17 17 18 18 18 17 17 16 16 16 15 15 14
23 24 24 23 23 23 23 23 24 24 25 26 26 27 27 27 27 27 28 27 27 26 25 25 25 25 25 25 25 24 24 23 22 21 20 19 18 17 17 16 16 17 17 16 16 15 15 15 16 16 16 16 16 16 16 17 17 18 18 18 18 18 18 17 17 17 16 16 15
23 23 24 24 24 23 23 24 24 25 25 26 27 27 27 27 27 27 27 27 26 26 26 26 26 26 25 26 25 25 25 25 24 23 22 21 20 19 18 18 17 17 18 17 17 17 16 16 16 16 16 16 16 16 17 17 17 18 19 19 19 19 19 19 18 18 17 17 16
23 23 23 24 24 24 24 24 25 25 26 27 27 28 28 28 27 27 27 26 26 26 27 27 26 26 26 26 26 26 26 25 25 24 24 23 22 21 20 19 19 18 18 18 18 18 18 17 17 17 17 17 17 17 17 17 18 18 19 19 20 20 20 20 19 19 18 18 17
24 24 24 24 24 24 25 25 26 26 27 27 28 28 28 28 27 27 26 26 26 27 27 26 26 26 26 26 27 27 26 26 26 26 25 25 24 23 22 21 20 20 20 20 20 19 19 19 18 18 17 17 17 17 18 18 18 19 19 20 20 21 21 21 20 20 19 19 19
24 24 24 24 24 25 25 26 26 27 27 28 28 28 27 27 27 27 26 27 27 27 27 26 26 26 27 27 27 27 27 27 27 26 26 26 26 25 24 23 22 22 21 21 21 21 21 20 19 19 18 18 18 18 18 18 19 19 20 20 21 21 21 21 20 20 20 20 20
24 24 25 25 25 25 26 26 26 27 27 28 28 27 27 27 27 26 26 27 27 28 27 27 27 27 28 27 27 27 27 27 27 27 27 27 27 27 26 25 24 23 23 23 22 22 22 21 21 20 19 19 19 18 18 18 19 19 19 20 20 20 20 20 20 20 20 20 21
23 23 24 24 25 25 26 26 27 27 28 28 27 27 26 26 26 26 26 27 27 27 27 28 28 28 28 28 28 28 28 28 28 28 29 29 29 29 28 27 26 25 24 24 24 23 23 22 22 21 21 20 20 19 19 19 18 18 19 19 19 19 19 19 20 20 20 21 21
23 23 23 23 24 25 25 26 26 27 27 28 27 27 26 26 26 26 26 26 26 27 27 28 28 28 28 28 28 28 28 28 29 29 30 30 31 30 30 29 28 27 26 25 25 25 24 24 23 22 22 21 21 20 19 19 18 18 18 18 18 18 18 18 19 19 20 20 21
22 22 22 22 23 24 24 24 25 25 26 26 26 26 26 26 26 26 26 26 26 27 27 27 27 27 27 28 28 28 29 29 30 31 31 32 32 31 31 30 29 28 27 26 26 26 25 25 24 24 23 22 22 21 20 19 19 18 18 18 18 17 18 18 18 19 20 20 21
22 22 22 22 23 23 23 23 24 24 24 24 24 25 25 26 26 27 27 27 27 27 27 27 27 27 27 27 28 28 29 30 31 31 32 32 32 32 32 31 30 29 28 27 27 26 26 25 25 25 24 24 23 22 21 20 20 19 19 18 18 18 18 18 18 19 19 20 20
22 22 22 22 22 23 23 23 23 23 23 23 23 24 24 24 25 26 27 28 27 27 27 27 27 27 27 27 28 28 29 29 30 31 32 32 32 32 32 32 31 30 29 28 28 27 27 27 26 26 26 25 24 24 23 22 21 20 20 19 19 18 18 18 18 19 19 20 20
22 22 22 22 22 22 23 23 23 23 23 23 23 23 23 23 24 25 26 26 27 27 27 27 28 28 28 28 28 28 29 29 29 30 31 32 32 33 33 32 32 31 30 29 29 28 28 28 28 27 27 26 26 25 24 23 22 21 21 20 19 19 18 18 18 19 19 20 20
22 21 21 21 22 22 22 22 23 23 23 24 24 23 23 23 23 23 23 24 25 27 28 28 28 29 28 28 28 28 28 28 29 30 30 31 32 33 33 32 32 32 31 31 30 30 29 29 29 28 28 27 26 26 25 24 23 22 21 20 20 19 19 19 19 19 19 20 20
21 21 21 21 21 21 21 21 22 22 23 23 23 23 23 23 22 22 22 23 24 26 27 28 29 29 29 29 29 28 28 28 29 29 30 31 32 32 32 32 32 32 32 32 31 31 30 30 30 29 29 28 27 26 25 24 23 22 22 21 20 20 20 20 20 20 20 20 20
20 20 20 20 20 20 20 21 21 22 22 23 23 22 22 22 22 22 22 23 23 25 26 27 28 29 29 29 29 28 28 28 29 30 30 31 31 32 32 32 33 33 33 33 32 31 31 31 31 30 30 29 28 27 26 25 24 23 23 22 21 21 21 21 21 21 21 21 21
21 20 20 20 20 20 20 20 21 22 22 22 22 22 22 22 22 22 22 23 23 24 25 26 27 28 28 29 29 29 29 29 29 30 30 31 31 31 32 32 32 33 33 33 32 32 31 31 30 30 30 29 29 28 27 26 25 25 24 23 23 22 22 22 22 22 22 22 22
22 21 21 20 20 20 20 21 21 21 22 22 22 22 22 21 21 21 22 23 23 23 24 25 26 27 28 28 28 29 29 29 29 30 30 31 32 32 32 32 33 33 33 33 33 32 31 30 30 30 30 29 29 29 28 28 27 26 25 25 24 24 24 24 24 24 23 23 23
24 23 22 21 21 21 21 21 21 21 21 21 21 21 21 21 21 21 22 23 23 24 24 25 26 27 27 28 28 29 29 29 30 30 30 31 31 32 33 33 33 33 34 34 33 32 31 30 29 29 29 29 29 29 29 29 28 28 27 27 26 26 25 25 25 25 25 24 23
26 25 24 23 23 22 22 21 21 21 21 21 21 21 21 21 21 22 23 23 24 24 25 25 26 26 26 27 28 29 30 30 30 30 30 31 31 32 33 33 33 34 34 33 32 31 30 30 28 28 28 28 29 29 29 29 29 29 28 28 28 27 27 27 26 26 25 25 24
26 26 26 25 25 24 23 22 22 22 21 20 19 19 20 20 21 22 23 23 24 24 25 26 26 26 27 28 29 29 30 30 30 29 29 30 31 32 33 33 34 34 34 33 32 31 30 29 28 27 27 27 28 28 28 28 28 29 29 29 29 29 28 28 27 27 26 26 25
27 27 27 27 27 26 25 24 23 21 20 19 18 19 19 20 21 22 23 23 24 25 25 25 26 26 27 28 28 29 29 29 29 29 29 30 30 32 33 33 33 33 33 32 31 30 29 29 28 27 27 26 27 27 28 28 28 28 29 29 30 30 29 29 28 28 27 26 25
27 27 27 27 27 27 27 26 24 21 20 18 18 18 19 21 22 23 23 23 24 24 24 24 25 26 28 28 28 29 29 29 29 29 29 30 30 31 32 33 33 33 33 32 31 30 29 28 28 27 27 26 26 27 28 28 28 28 29 29 30 30 29 29 29 28 28 27 26
26 26 26 26 27 27 27 26 25 23 21 20 19 19 20 22 22 23 23 23 23 23 23 24 25 27 28 28 29 29 29 30 30 30 30 30 31 32 32 32 33 33 33 32 31 30 29 28 28 28 27 27 27 27 28 28 28 28 28 29 29 29 29 28 28 28 27 27 26
25 25 25 25 25 26 27 27 26 24 23 21 21 21 22 23 23 23 23 23 23 23 24 25 26 27 28 29 29 29 29 30 30 30 31 31 31 31 32 32 32 32 32 31 30 30 29 28 28 28 28 27 27 27 27 27 28 28 28 28 28 28 28 27 27 27 26 26 25
24 24 24 24 24 25 26 26 26 25 24 23 23 24 24 24 24 24 24 24 23 23 24 25 26 27 28 28 29 29 29 29 30 30 30 31 31 31 31 31 32 31 31 30 30 29 29 28 28 27 27 27 27 26 27 27 27 27 27 28 28 27 27 26 26 25 25 24 24
23 23 23 24 24 25 25 26 26 26 25 24 25 26 26 26 26 26 25 24 23 23 23 24 25 26 27 28 28 29 29 29 29 30 30 30 30 31 31 32 32 31 31 29 29 29 28 28 27 27 27 27 26 26 26 26 27 27 27 27 27 27 27 26 25 25 24 23 23
24 23 23 24 25 25 25 26 26 26 26 25 26 27 28 28 28 27 25 24 23 23 23 23 24 25 26 27 28 29 30 30 30 30 30 30 30 31 32 33 33 32 30 29 28 28 28 27 27 27 26 26 26 26 26 26 26 26 26 26 26 26 26 26 26 25 24 23 22
25 25 25 25 25 26 26 26 26 26 26 27 27 28 29 29 29 28 26 24 23 23 23 23 24 25 26 28 28 29 30 31 30 30 30 30 30 31 31 32 33 32 31 29 28 27 27 27 27 26 26 26 27 27 26 25 25 24 24 24 25 25 25 25 25 25 24 24 23
28 27 26 26 26 26 26 26 26 27 27 28 29 29 30 30 29 28 26 25 24 24 24 24 25 26 27 28 28 29 30 30 30 30 30 30 31 31 31 31 32 31 31 29 28 27 26 26 26 26 26 27 27 27 26 25 24 23 23 23 23 23 24 24 24 24 24 24 24
29 29 28 27 27 27 27 27 27 27 28 29 29 30 31 30 29 28 27 26 25 25 24 25 25 26 26 26 27 27 28 29 30 30 31 31 31 31 31 31 31 31 30 29 28 27 26 26 26 26 26 27 27 27 26 25 23 23 22 22 21 22 22 23 23 23 24 24 23
30 30 29 28 28 27 28 28 28 28 29 29 30 30 31 31 31 29 28 26 26 25 25 25 25 25 25 25 25 26 27 28 29 30 31 31 31 31 31 31 31 30 30 29 28 27 26 26 26 26 26 26 27 27 27 25 23 22 22 21 20 20 21 22 23 23 23 23 23
32 31 30 29 28 28 27 28 28 29 29 29 29 30 31 31 30 29 28 27 26 25 25 25 25 24 24 24 24 25 26 27 28 29 30 31 31 31 31 31 31 30 30 29 28 27 26 26 26 26 26 26 27 27 26 25 23 22 22 21 21 20 20 21 22 22 23 23 23
Wind_Direction
244 246 248 250 252 254 256 258 260 262 263 264 265 264 264 266 268 271 273 273 272 271 269 268 268 267 265 263 261 258 255 253 251 249 249 249 250 250 249 248 245 243 240 237 235 233 231 230 229 229 229 229 229 230 231 231 232 233 234 234 233 232 232 231 230 229 227 226 225
242 244 245 247 249 252 253 255 256 257 259 261 262 262 263 264 266 269 271 272 273 273 273 273 273 273 273 274 273 271 266 260 254 251 249 249 250 251 250 249 246 244 241 239 238 236 235 233 232 231 231 230 230 230 230 231 231 232 233 233 233 233 232 231 230 230 229 227 226
241 243 244 244 246 247 249 251 253 254 256 257 259 260 260 261 263 266 268 269 272 274 274 273 274 276 277 280 281 280 276 269 261 254 251 251 252 252 252 251 249 247 244 242 240 239 238 237 236 235 234 233 232 232 232 231 232 232 233 234 234 234 233 232 232 230 229 228 228
241 241 242 243 243 245 246 249 252 254 255 256 257 257 258 259 260 262 264 266 268 268 269 270 272 274 276 279 281 281 278 272 265 259 254 253 253 253 253 252 251 249 247 245 243 242 241 240 239 239 238 236 235 235 234 234 234 234 234 235 235 235 234 234 233 231 230 229 228
241 241 242 243 244 246 247 249 251 253 255 256 256 256 256 256 257 258 259 260 261 263 265 267 269 271 273 275 276 276 274 270 266 261 257 255 254 253 252 251 250 249 248 247 245 243 242 241 241 240 239 238 237 236 236 235 235 235 235 236 236 236 235 235 234 232 230 229 229
244 244 244 245 246 247 248 249 250 252 254 255 255 255 255 255 255 255 256 257 259 261 263 264 266 267 269 270 270 270 269 267 264 262 260 258 256 254 251 249 248 247 246 246 244 243 242 241 240 240 239 238 237 236 235 234 235 235 235 235 235 236 235 234 234 232 231 230 229
250 248 247 247 247 247 248 249 250 251 252 253 253 254 255 255 255 255 256 257 259 260 260 261 262 263 265 266 267 266 266 264 262 261 260 259 257 254 251 248 246 245 244 243 242 241 240 239 239 239 238 237 236 235 234 233 233 233 234 234 234 234 234 233 233 232 231 230 230
255 254 253 252 250 249 249 249 249 249 249 250 251 253 255 256 256 257 257 258 258 258 258 259 260 261 263 264 265 265 264 263 261 260 260 259 258 255 251 247 245 243 243 242 241 239 238 238 238 237 237 236 235 234 233 232 232 232 232 233 233 233 232 232 232 232 231 230 230
258 258 258 257 255 253 251 250 249 248 248 249 251 253 255 256 257 257 258 257 258 258 259 259 260 261 262 262 263 264 263 262 261 260 259 259 258 256 253 248 245 243 242 241 240 239 237 236 236 236 236 236 235 234 233 232 232 232 232 233 233 232 231 231 231 231 230 230 230
261 261 261 260 259 258 256 254 252 251 250 251 252 254 255 256 257 258 258 259 259 259 258 258 259 260 260 260 261 262 262 262 261 260 259 259 258 257 254 251 247 244 242 242 240 239 237 236 236 236 236 235 234 233 232 232 232 232 232 233 233 232 231 230 229 229 230 230 231
265 265 264 263 263 262 260 258 257 255 254 254 255 255 255 255 256 257 259 260 259 258 258 258 258 258 258 259 260 261 261 261 260 259 258 258 258 257 256 254 250 247 245 243 242 240 238 236 236 236 235 234 233 232 231 231 231 231 232 233 233 233 232 230 229 229 229 230 231
270 269 268 266 266 265 264 263 262 261 260 259 259 258 257 257 257 257 258 258 257 258 258 258 257 256 257 258 259 259 260 259 259 258 257 257 257 256 256 255 253 250 247 245 243 241 239 237 237 236 235 234 232 231 230 229 229 230 231 232 233 233 232 231 230 229 229 230 231
274 273 271 269 268 267 266 266 266 266 265 265 264 263 262 261 260 259 257 257 257 258 258 257 256 255 255 256 257 257 257 257 257 256 256 256 255 255 254 254 253 251 249 246 244 242 240 239 238 237 236 234 233 231 229 228 228 229 230 231 232 232 232 231 230 229 229 230 231
276 274 272 271 269 268 267 267 267 267 267 267 268 267 266 265 264 262 259 258 258 259 258 257 255 254 253 254 254 254 255 255 255 255 254 254 254 254 253 252 251 250 249 247 244 242 240 239 239 238 237 236 234 232 230 228 228 229 230 231 232 232 232 231 231 230 230 230 230
276 275 274 273 270 269 268 267 267 268 268 269 270 270 269 268 267 265 263 262 261 261 260 257 255 254 253 252 252 252 252 253 253 253 253 253 253 252 251 251 250 249 248 246 244 242 241 240 239 239 239 238 237 235 232 231 230 231 231 232 233 233 233 232 231 230 230 230 230
276 275 275 273 271 270 269 269 269 269 270 271 272 272 271 271 270 269 267 265 264 263 261 258 256 255 254 252 251 250 249 250 250 250 250 251 251 250 250 249 248 247 246 245 244 242 241 240 239 239 239 240 239 238 236 234 233 233 234 235 235 235 235 233 232 231 230 230 230
276 276 275 273 271 271 270 271 271 272 273 275 276 275 275 274 274 272 270 268 267 265 263 261 259 257 255 253 251 249 247 247 247 247 247 248 248 249 248 248 247 246 245 244 243 242 241 240 239 239 239 240 240 240 238 237 236 236 237 238 238 237 236 234 232 231 230 230 230
278 277 275 273 272 271 272 272 273 274 276 278 279 278 278 277 276 275 274 272 270 267 265 264 263 260 257 254 252 250 248 246 246 246 246 246 247 247 247 247 246 245 244 243 243 242 241 240 238 238 238 239 239 240 240 239 238 238 238 239 239 239 237 235 232 231 230 229 230
282 280 277 275 274 273 273 274 274 275 277 279 280 280 280 279 278 277 276 275 273 271 269 268 266 263 260 257 255 252 250 248 247 247 247 247 247 246 246 246 246 245 244 243 242 242 241 240 239 238 237 237 238 239 239 239 239 239 239 239 239 239 237 234 232 230 229 229 229
286 284 281 279 277 276 276 275 275 276 277 278 279 279 279 279 279 278 277 277 276 275 273 271 268 266 263 261 258 255 253 251 249 249 248 248 247 246 246 246 245 245 244 243 242 241 241 240 239 238 237 237 237 238 238 238 238 238 238 238 239 238 236 234 232 231 229 229 229
290 288 287 286 283 281 279 278 278 277 277 276 276 276 277 278 278 278 278 279 279 277 275 272 270 268 266 263 261 258 256 254 252 250 250 249 247 247 246 246 245 244 244 243 242 241 240 239 238 238 237 237 237 237 238 238 238 238 238 238 238 237 236 234 232 230 229 229 228
294 294 294 292 289 287 285 283 281 279 277 276 275 275 275 275 275 276 277 278 277 276 274 272 271 270 268 266 264 262 260 258 255 253 252 251 249 249 248 246 245 244 243 243 242 241 240 239 238 238 237 237 237 238 238 239 239 239 239 238 238 237 236 234 232 230 229 228 228
298 297 296 295 293 291 289 286 283 280 278 276 275 275 274 274 274 275 275 275 274 273 272 272 271 270 269 268 267 265 263 261 258 256 254 253 251 250 249 247 245 244 244 243 242 241 239 238 238 238 238 238 238 238 239 239 240 240 240 239 238 237 236 234 232 231 229 228 228
300 298 297 295 294 292 290 288 285 281 279 278 277 276 275 275 275 275 273 272 271 270 270 270 269 269 269 269 267 265 263 261 259 258 256 255 253 251 249 247 246 245 244 244 243 242 240 238 238 237 238 238 238 239 239 240 240 241 240 239 239 237 236 234 233 231 230 228 228
304 300 297 294 292 291 290 287 284 282 281 280 279 277 276 275 275 274 272 271 269 269 268 268 268 267 267 266 265 264 262 260 258 257 256 255 253 251 249 247 246 245 245 245 244 242 241 239 238 238 238 238 238 239 239 240 240 241 241 240 239 237 236 234 232 231 229 228 227
307 302 298 295 292 290 287 285 283 282 281 280 278 276 274 274 274 273 271 270 269 269 268 267 266 265 263 262 262 260 259 258 256 255 254 253 252 250 248 246 245 244 244 244 243 242 240 239 238 238 238 238 238 238 238 239 239 240 240 240 239 237 236 234 232 230 229 228 227
307 304 301 298 294 289 286 284 282 280 278 276 273 273 273 274 273 271 269 269 269 269 267 266 264 263 261 260 258 257 255 255 254 253 252 250 249 248 246 245 244 243 243 242 241 240 239 237 236 237 237 238 238 238 238 238 239 239 239 239 238 237 236 234 233 231 229 228 227
308 305 303 300 295 290 287 284 279 276 273 272 271 272 273 272 269 267 267 266 267 266 265 263 262 261 259 256 255 254 254 253 251 250 249 248 247 246 245 244 243 243 242 242 240 238 236 235 233 233 234 237 237 238 238 238 238 238 238 238 237 237 236 235 234 232 230 229 227
311 307 303 299 296 292 288 283 277 274 273 273 273 272 271 268 266 265 264 263 262 260 259 259 259 258 255 253 253 253 252 251 250 248 247 246 245 245 244 243 243 242 242 241 239 237 235 232 230 229 230 233 235 236 236 236 236 236 237 237 237 236 236 235 234 233 232 230 229
316 309 304 300 296 292 288 284 280 277 276 275 274 272 269 266 264 262 260 259 257 256 256 257 256 254 252 252 252 251 250 249 248 246 245 244 243 243 243 243 243 242 242 240 238 236 234 231 229 227 226 229 233 235 234 234 234 234 235 235 236 236 236 235 234 233 233 232 230
320 313 307 301 296 292 289 286 283 281 279 277 274 272 269 266 263 261 259 258 257 257 256 254 252 251 252 252 251 249 248 247 246 244 243 242 242 242 243 243 243 243 242 240 237 235 233 231 228 226 224 223 227 231 233 233 233 232 233 234 235 236 236 235 234 234 233 233 231
321 317 311 303 297 293 290 288 285 283 281 278 275 272 269 266 265 264 263 260 258 256 253 250 248 248 250 250 249 248 246 245 244 243 242 241 241 242 242 242 242 242 242 240 237 234 232 230 228 225 222 220 223 227 231 232 232 232 233 234 235 236 236 235 234 234 234 233 233
321 318 314 307 300 296 293 290 287 285 283 280 277 273 270 269 268 266 263 260 257 253 249 247 246 246 246 246 246 246 245 244 243 242 241 241 240 240 241 240 241 241 241 239 236 234 231 229 227 224 221 218 219 223 228 230 231 232 232 233 235 236 237 236 235 235 234 234 233
319 317 314 309 303 299 296 293 290 288 285 281 278 276 273 270 267 264 261 258 256 253 251 250 248 247 247 247 246 245 245 244 243 242 241 240 240 239 239 239 240 240 239 237 235 233 230 228 225 223 220 218 217 220 224 226 228 229 230 231 233 235 236 236 236 235 234 234 233
317 315 312 309 306 303 300 297 294 291 287 282 279 276 273 270 266 263 261 259 257 254 252 251 250 250 249 248 247 246 245 244 243 242 241 240 239 238 238 239 239 239 238 236 235 232 230 227 225 223 220 217 216 218 220 223 225 227 228 230 231 233 234 235 235 235 234 234 233
315 313 311 309 308 306 303 301 297 293 288 283 279 276 273 270 268 265 263 260 255 251 249 249 248 247 245 245 244 244 243 243 243 242 241 240 238 237 238 239 239 239 238 236 234 232 229 227 224 222 220 218 216 216 218 220 223 224 226 228 229 231 232 234 234 234 233 233 232
314 313 311 309 307 306 304 302 299 294 289 285 281 277 274 271 269 267 263 258 251 247 246 246 245 243 242 242 242 242 243 243 243 242 241 240 238 237 237 239 239 239 237 235 233 231 229 226 224 221 219 217 216 216 216 217 219 221 223 225 227 229 231 232 232 232 232 232 231
314 313 311 309 307 306 304 302 298 294 290 287 284 280 277 274 270 267 262 256 248 244 244 244 243 243 243 244 244 244 244 244 242 241 240 239 238 238 238 238 239 239 238 235 232 229 228 225 223 220 218 217 216 215 215 215 216 217 219 221 223 226 228 229 230 230 230 231 230
313 312 310 308 306 305 304 301 298 294 291 288 285 283 279 275 271 267 263 257 251 247 244 243 243 244 245 245 244 244 244 244 243 241 240 239 239 239 239 238 239 239 238 235 232 229 226 224 222 219 218 217 216 215 214 213 214 215 216 217 219 222 224 226 227 228 228 229 229
311 310 309 307 305 304 302 300 297 295 293 289 286 282 279 276 273 269 265 259 254 250 247 245 245 245 245 244 242 242 242 243 242 241 240 240 240 240 239 239 239 239 238 236 232 229 226 223 221 219 217 216 216 215 214 213 212 213 214 215 215 216 218 221 223 224 225 226 225
310 309 308 306 304 302 300 298 296 295 293 290 286 283 281 278 275 271 266 260 254 250 247 245 245 245 244 242 240 240 240 241 241 241 240 240 240 239 239 238 239 239 238 236 232 228 225 222 220 217 216 215 215 214 213 211 211 212 212 213 213 212 212 215 217 220 221 222 222
Height
746 747 747 747 748 748 749 749 750 751 751 752 753 753 754 754 754 755 755 756 756 756 757 758 758 759 760 761 761 762 763 764 764 765 766 766 767 768 768 768 769 769 769 770 771 771 772 773 774 774 775 776 776 777 777 778 778 779 779 780 781 781 782 783 784 784 785 786 786
746 746 746 747 748 748 748 749 750 750 751 751 752 752 753 753 753 754 754 755 755 756 756 757 757 758 759 759 760 761 761 762 763 764 765 766 766 766 767 767 767 768 768 769 769 770 771 772 772 773 774 774 775 776 776 776 777 778 778 779 780 781 781 782 783 783 784 784 785
745 746 746 746 747 747 748 748 749 749 750 751 751 751 752 752 752 753 753 754 754 755 756 756 756 757 757 758 759 759 760 761 762 763 764 764 765 765 766 766 766 766 767 767 768 769 770 771 771 772 772 773 774 774 775 776 776 777 777 778 779 780 780 781 781 782 783 783 784
744 745 745 746 746 746 747 747 748 748 749 750 750 751 751 751 751 752 752 753 753 754 754 755 755 756 756 757 757 758 759 760 761 762 762 763 763 764 764 764 765 765 765 766 767 767 768 769 770 770 771 772 772 773 774 775 775 776 776 777 778 779 779 780 781 781 782 783 783
742 743 744 744 745 746 746 747 747 748 748 749 749 750 750 750 751 751 751 752 752 752 753 753 754 754 755 756 756 757 758 759 760 761 761 761 762 762 762 763 763 764 764 765 766 766 767 768 768 769 770 771 771 772 773 774 775 775 776 776 777 778 778 779 780 781 781 782 783
741 742 742 743 744 745 746 746 747 747 748 748 748 748 748 749 749 749 750 750 751 751 752 752 753 753 754 754 755 756 757 757 758 759 760 760 761 761 761 761 762 763 763 764 765 765 766 767 767 768 769 770 771 771 772 773 774 774 775 776 776 777 777 778 779 780 781 781 782
740 741 741 742 743 744 745 745 746 746 747 747 747 747 747 747 748 748 748 749 750 750 751 751 752 752 752 753 754 755 755 756 757 758 758 759 759 760 760 761 761 761 762 763 764 764 765 766 766 767 768 769 769 770 771 771 772 773 774 775 775 776 776 777 778 779 780 781 781
739 740 740 741 742 743 743 744 745 746 746 746 746 746 746 746 746 747 747 748 748 749 749 750 751 751 751 752 752 753 754 755 756 756 757 757 758 758 759 760 760 761 761 762 763 763 764 765 766 766 767 767 768 769 770 771 771 772 773 773 774 775 776 776 777 778 779 779 780
738 739 739 740 741 741 742 743 744 744 745 745 745 745 745 745 746 746 746 746 747 747 748 749 749 750 750 751 751 751 752 753 754 755 756 756 757 757 758 758 759 760 760 761 762 762 763 764 764 765 766 766 767 768 769 769 770 771 771 772 773 774 775 775 776 777 777 778 779
737 737 738 739 739 740 741 741 742 743 743 743 743 743 744 744 745 745 745 745 746 746 747 747 748 748 748 749 749 750 751 751 752 753 754 755 755 756 756 757 758 758 759 760 761 761 762 762 763 764 764 765 766 766 767 768 769 769 770 771 772 773 773 774 775 775 776 777 778
736 736 737 738 738 739 740 740 741 741 741 741 741 742 742 743 743 743 744 744 745 745 745 746 746 746 747 747 748 748 749 750 751 751 752 753 754 754 755 756 756 757 757 758 759 760 760 761 761 762 763 764 764 765 766 766 767 768 769 770 771 771 772 772 773 774 775 776 776
735 735 736 736 737 737 738 738 739 739 739 740 740 740 741 741 741 742 743 743 743 743 743 744 745 745 745 746 746 747 747 748 749 750 750 751 752 752 753 754 755 755 756 757 757 758 759 759 760 761 761 762 763 763 764 765 766 766 767 768 769 770 770 771 772 772 773 774 775
733 734 734 735 736 736 736 736 737 737 737 737 738 738 739 739 740 741 741 741 741 742 742 743 743 744 744 744 745 745 746 746 747 748 748 749 750 751 751 752 753 753 754 755 756 756 757 758 758 759 760 761 761 762 763 763 764 765 766 766 767 768 769 769 770 771 772 773 774
732 732 733 733 734 734 735 735 735 735 735 735 736 736 736 737 738 739 739 740 740 740 741 741 741 742 742 742 743 743 744 745 745 746 746 747 748 749 749 750 751 751 752 753 754 755 756 756 757 757 758 759 760 761 761 762 762 763 764 765 765 766 767 768 769 770 771 771 772
731 731 731 732 733 733 733 733 733 733 733 733 733 734 734 735 736 736 737 737 738 738 739 740 740 740 741 741 741 742 742 743 743 744 744 745 746 746 747 748 749 750 751 751 752 753 754 755 756 756 757 757 758 759 760 760 761 761 762 763 764 765 766 766 767 768 769 769 770
729 730 730 731 731 731 731 731 731 731 731 731 731 732 732 733 734 734 735 735 736 736 737 737 738 738 739 740 740 741 741 741 742 742 742 743 743 744 745 746 746 747 748 749 750 751 752 753 754 755 755 756 757 757 758 759 760 760 761 761 762 763 764 764 765 766 766 767 768
729 729 729 730 730 730 730 730 730 730 730 729 730 730 731 731 731 732 733 733 734 734 735 735 736 737 737 738 739 739 740 740 740 740 740 741 741 741 742 743 744 746 746 747 748 749 750 751 752 753 754 755 755 756 757 757 758 759 759 760 761 761 762 762 763 764 765 766 766
729 729 729 729 729 728 728 728 728 728 728 728 728 729 729 729 730 730 731 731 732 732 733 733 734 735 736 736 737 737 738 738 738 738 738 739 739 740 740 741 742 744 745 746 746 747 748 749 750 751 752 753 754 754 755 756 756 757 758 759 759 760 760 761 761 762 763 764 765
729 729 729 729 728 728 728 727 727 727 727 727 727 727 727 728 728 729 729 729 730 731 731 732 732 733 734 734 735 736 736 736 736 736 737 737 738 738 739 739 741 741 743 744 744 745 746 747 748 749 750 751 752 752 753 754 755 756 756 757 757 758 759 759 760 761 761 762 763
729 729 729 728 728 728 728 727 727 727 726 726 726 726 726 726 727 727 727 727 728 729 730 730 731 731 732 732 733 734 734 734 735 735 736 736 736 736 737 737 738 739 740 741 742 743 744 745 746 747 748 749 750 751 751 752 753 754 754 755 756 756 757 758 758 759 760 761 762
728 728 728 728 728 727 727 727 727 726 726 726 726 726 726 726 726 726 726 726 727 727 727 728 728 729 729 730 731 731 732 733 733 734 734 734 735 735 735 736 737 737 738 739 740 741 742 743 744 745 746 746 747 748 749 750 751 751 752 753 754 754 755 756 756 757 758 759 760
728 728 728 727 727 727 726 726 726 726 726 725 725 725 725 725 724 724 725 725 725 725 725 725 726 726 727 727 728 729 730 731 731 731 732 732 733 733 734 735 735 735 736 737 738 739 740 741 741 742 743 744 745 746 746 747 748 749 750 751 751 752 753 754 755 755 756 757 758
728 727 727 727 726 726 726 725 725 725 724 724 724 724 724 723 723 723 723 723 723 723 723 723 723 724 724 725 726 727 727 728 729 729 730 730 731 731 732 732 733 733 733 734 735 736 737 738 739 740 741 742 742 743 744 745 746 746 747 748 749 750 751 752 752 753 754 755 756
727 727 726 726 726 725 725 724 724 723 723 722 722 722 722 722 722 722 722 722 721 721 721 721 721 722 722 723 724 725 725 726 726 726 727 728 728 729 730 730 730 731 731 731 732 734 735 736 736 737 738 739 740 741 742 743 743 744 745 746 747 748 749 750 751 752 753 754 755
726 726 726 725 725 724 724 723 723 722 722 721 721 721 721 721 721 721 721 720 720 720 720 720 720 721 721 721 722 722 723 723 724 724 725 726 726 727 727 728 728 728 728 729 730 731 732 733 734 735 736 737 738 739 740 741 741 742 743 744 745 746 747 748 749 750 751 752 753
725 725 725 725 724 724 723 722 722 721 721 721 720 720 720 719 719 719 719 719 719 718 718 719 719 719 720 720 720 721 721 721 722 723 723 724 724 725 725 726 726 726 726 727 728 729 731 732 733 734 734 735 736 737 738 739 740 741 742 743 744 745 746 746 747 748 750 751 751
724 724 724 724 723 723 722 721 721 720 720 719 719 719 718 718 718 718 718 717 717 717 717 717 717 718 718 719 719 719 719 720 720 721 721 722 723 723 723 724 724 724 725 726 727 728 729 730 731 732 733 734 735 736 737 737 738 740 741 741 742 743 744 745 746 746 748 749 750
722 722 722 722 722 721 721 720 720 719 718 718 717 717 717 717 717 716 716 716 716 716 716 716 716 716 716 717 716 716 717 717 718 719 720 720 721 721 722 722 723 723 723 724 726 727 728 729 730 731 732 732 733 734 735 736 737 738 739 740 740 741 742 743 744 745 746 747 748
721 721 721 721 721 720 720 719 718 717 716 716 716 716 716 716 715 715 715 715 715 715 715 715 715 715 715 715 714 714 715 716 716 717 718 718 719 719 720 720 721 721 722 723 725 726 727 728 729 730 731 731 732 733 734 735 736 736 737 738 738 739 740 741 742 743 744 746 746
720 720 720 720 719 719 718 717 716 716 715 715 714 714 714 714 713 713 713 713 713 713 714 714 715 714 713 713 713 713 713 714 714 715 716 716 716 717 717 718 719 720 721 722 723 724 725 726 727 729 730 730 730 731 732 733 734 735 735 736 736 737 738 739 740 741 742 743 744
718 719 719 718 718 717 716 716 715 715 714 713 713 712 712 712 711 711 711 710 710 711 712 713 713 713 712 712 712 712 711 712 712 713 713 714 714 714 715 716 717 718 719 721 722 723 724 725 726 727 728 729 729 729 730 731 732 733 733 734 735 735 736 737 738 739 740 741 741
717 717 717 717 716 716 715 715 714 714 713 712 711 711 710 710 709 709 708 708 708 709 710 711 711 711 711 711 711 710 710 710 711 711 711 711 712 712 713 714 715 716 717 719 720 721 722 723 724 726 726 728 728 728 728 729 730 731 731 732 733 733 734 735 735 736 737 738 739
716 716 715 715 714 714 713 713 713 712 712 711 710 709 709 708 707 707 706 706 706 706 707 707 708 708 709 709 709 709 709 709 709 709 709 710 710 711 711 712 713 714 715 717 719 720 721 722 723 724 725 726 727 727 727 727 728 729 730 730 731 731 732 732 733 733 734 735 736
714 714 713 713 712 712 711 711 711 711 710 710 709 708 707 706 706 705 705 704 704 704 704 704 705 705 706 707 707 707 707 707 707 707 707 708 708 709 710 710 711 711 713 715 716 718 720 721 722 723 724 725 726 726 726 726 726 727 727 728 729 729 730 730 731 731 732 732 733
713 712 712 711 711 710 710 709 709 709 708 708 707 706 706 706 705 704 703 702 702 701 701 701 702 703 704 704 705 706 706 706 706 706 706 706 706 707 707 707 708 709 711 713 714 716 717 719 720 721 722 723 724 724 724 724 724 724 725 726 726 727 728 728 729 729 730 731 731
711 711 710 709 709 708 708 707 707 706 706 706 705 705 704 704 703 702 701 701 700 700 699 699 700 701 701 701 702 703 703 703 704 704 704 704 705 705 704 704 705 706 708 710 712 713 715 717 718 720 721 722 722 722 722 721 721 722 723 723 724 725 726 726 727 728 728 729 729
710 709 708 707 707 706 706 706 705 704 704 703 703 702 702 702 701 701 700 700 699 697 697 697 697 698 698 698 699 699 700 701 701 702 702 702 702 702 702 702 703 704 706 707 709 711 712 714 716 717 719 720 720 720 720 720 720 720 721 721 722 723 724 725 725 726 726 727 727
708 707 706 706 705 704 704 703 703 702 701 701 701 700 700 700 700 699 699 698 697 695 694 694 694 694 695 695 696 697 697 698 699 700 700 700 700 700 700 700 700 701 703 705 706 708 710 711 713 715 716 717 717 718 718 718 718 718 719 720 720 721 722 723 724 724 725 725 726
706 706 705 704 703 702 702 701 701 700 700 699 698 698 698 698 697 697 696 696 695 693 692 691 691 691 692 693 694 695 695 696 696 697 698 698 698 698 698 698 698 699 700 701 703 705 707 709 710 712 714 715 715 716 716 716 716 717 717 718 719 719 720 721 722 722 723 723 724
704 704 703 702 701 701 700 699 699 698 697 697 696 696 696 696 695 695 695 694 693 691 690 689 688 689 690 691 692 693 693 693 694 694 695 695 696 696 696 696 696 696 697 699 700 702 704 706 707 709 711 712 713 713 714 715 715 716 716 716 717 718 718 719 720 721 721 721 722
702 701 701 700 700 699 698 697 696 696 696 695 694 694 693 693 693 693 692 692 691 689 688 687 686 687 688 689 690 690 690 691 691 691 692 693 693 694 694 694 694 694 695 696 697 699 701 702 704 706 708 710 711 711 712 713 713 714 714 714 715 716 717 717 718 719 720 720 720